Time,TemperatureF,DewpointF,PressureIn,WindDirection,WindDirectionDegrees,WindSpeedMPH,WindSpeedGustMPH,Humidity,HourlyPrecipIn,Conditions,Clouds,dailyrainin,SoftwareType,DateUTC
2013-03-16 00:00:00,54.8,32.8,29.84,SSW,202,0.0,0.0,43,0.00,,---,0.00,VWS V14.01,2013-03-16 04:00:00,
2013-03-16 00:05:00,54.7,32.7,29.84,SSW,208,1.0,1.0,43,0.00,,---,0.00,VWS V14.01,2013-03-16 04:05:00,
2013-03-16 00:10:00,54.7,32.7,29.84,SSW,208,0.0,0.0,43,0.00,,---,0.00,VWS V14.01,2013-03-16 04:10:00,
2013-03-16 00:15:00,54.5,33.0,29.84,South,181,0.0,0.0,44,0.00,,---,0.00,VWS V14.01,2013-03-16 04:15:00,
2013-03-16 00:20:00,54.4,33.0,29.84,South,184,0.0,0.0,44,0.00,,---,0.00,VWS V14.01,2013-03-16 04:20:00,
2013-03-16 00:25:00,54.2,32.8,29.84,South,191,0.0,0.0,44,0.00,,---,0.00,VWS V14.01,2013-03-16 04:25:00,
2013-03-16 00:30:00,54.1,33.2,29.84,SSE,150,0.0,3.0,45,0.00,,---,0.00,VWS V14.01,2013-03-16 04:30:00,
2013-03-16 00:35:00,53.9,33.1,29.83,SE,131,0.0,3.0,45,0.00,,---,0.00,VWS V14.01,2013-03-16 04:35:00,
2013-03-16 00:40:00,53.8,33.5,29.83,SW,219,0.0,0.0,46,0.00,,---,0.00,VWS V14.01,2013-03-16 04:40:00,
2013-03-16 00:45:00,53.8,33.5,29.83,SSW,198,0.0,2.0,46,0.00,,---,0.00,VWS V14.01,2013-03-16 04:45:00,
2013-03-16 00:50:00,53.6,33.9,29.83,SSW,198,0.0,0.0,47,0.00,,---,0.00,VWS V14.01,2013-03-16 04:50:00,
2013-03-16 00:55:00,53.3,33.6,29.83,SSE,148,0.0,0.0,47,0.00,,---,0.00,VWS V14.01,2013-03-16 04:55:00,
2013-03-16 01:00:00,53.3,33.6,29.83,SSW,196,0.0,0.0,47,0.00,,---,0.00,VWS V14.01,2013-03-16 05:00:00,
2013-03-16 01:05:00,53.3,33.6,29.83,SSW,192,0.0,1.0,47,0.00,,---,0.00,VWS V14.01,2013-03-16 05:05:00,
2013-03-16 01:10:00,53.2,33.5,29.83,SSW,195,0.0,0.0,47,0.00,,---,0.00,VWS V14.01,2013-03-16 05:10:00,
2013-03-16 01:15:00,53.2,34.0,29.83,SSE,160,0.0,2.0,48,0.00,,---,0.00,VWS V14.01,2013-03-16 05:15:00,
2013-03-16 01:20:00,53.2,34.0,29.82,South,189,0.0,0.0,48,0.00,,---,0.00,VWS V14.01,2013-03-16 05:20:00,
2013-03-16 01:25:00,53.1,34.0,29.82,SSW,199,1.0,2.0,48,0.00,,---,0.00,VWS V14.01,2013-03-16 05:25:00,
2013-03-16 01:30:00,53.2,34.0,29.82,SSW,193,0.0,3.0,48,0.00,,---,0.00,VWS V14.01,2013-03-16 05:30:00,
2013-03-16 01:35:00,53.2,34.0,29.82,South,181,0.0,0.0,48,0.00,,---,0.00,VWS V14.01,2013-03-16 05:35:00,
2013-03-16 01:40:00,53.1,34.5,29.82,SSW,205,0.0,1.0,49,0.00,,---,0.00,VWS V14.01,2013-03-16 05:40:00,
2013-03-16 01:45:00,52.9,34.3,29.82,SE,140,2.0,3.0,49,0.00,,---,0.00,VWS V14.01,2013-03-16 05:45:00,
2013-03-16 01:50:00,52.9,34.3,29.81,SSW,196,0.0,2.0,49,0.00,,---,0.00,VWS V14.01,2013-03-16 05:50:00,
2013-03-16 01:55:00,52.9,34.3,29.81,SSW,210,2.0,5.0,49,0.00,,---,0.00,VWS V14.01,2013-03-16 05:55:00,
2013-03-16 02:00:00,52.8,34.7,29.81,SW,232,0.0,5.0,50,0.00,,---,0.00,VWS V14.01,2013-03-16 06:00:00,
2013-03-16 02:05:00,52.8,34.2,29.81,SSW,210,0.0,5.0,49,0.00,,---,0.00,VWS V14.01,2013-03-16 06:05:00,
2013-03-16 02:10:00,52.8,34.2,29.81,NW,325,0.0,4.0,49,0.00,,---,0.00,VWS V14.01,2013-03-16 06:10:00,
2013-03-16 02:15:00,52.8,34.2,29.81,South,178,0.0,3.0,49,0.00,,---,0.00,VWS V14.01,2013-03-16 06:15:00,
2013-03-16 02:20:00,52.8,34.7,29.81,SW,227,0.0,2.0,50,0.00,,---,0.00,VWS V14.01,2013-03-16 06:20:00,
2013-03-16 02:25:00,52.8,34.7,29.81,SSW,206,0.0,3.0,50,0.00,,---,0.00,VWS V14.01,2013-03-16 06:25:00,
2013-03-16 02:30:00,52.6,34.5,29.81,SSE,162,1.0,1.0,50,0.00,,---,0.00,VWS V14.01,2013-03-16 06:30:00,
2013-03-16 02:35:00,52.6,35.0,29.80,SW,234,0.0,0.0,51,0.00,,---,0.00,VWS V14.01,2013-03-16 06:35:00,
2013-03-16 02:40:00,52.5,34.9,29.80,South,189,0.0,2.0,51,0.00,,---,0.00,VWS V14.01,2013-03-16 06:40:00,
2013-03-16 02:45:00,52.5,34.9,29.80,SE,124,1.0,3.0,51,0.00,,---,0.00,VWS V14.01,2013-03-16 06:45:00,
2013-03-16 02:50:00,52.5,35.4,29.80,SSW,193,0.0,0.0,52,0.00,,---,0.00,VWS V14.01,2013-03-16 06:50:00,
2013-03-16 02:55:00,52.5,35.4,29.80,SSW,208,0.0,0.0,52,0.00,,---,0.00,VWS V14.01,2013-03-16 06:55:00,
2013-03-16 03:00:00,52.3,35.2,29.80,South,189,0.0,0.0,52,0.00,,---,0.00,VWS V14.01,2013-03-16 07:00:00,
2013-03-16 03:05:00,52.3,35.7,29.80,South,189,0.0,0.0,53,0.00,,---,0.00,VWS V14.01,2013-03-16 07:05:00,
2013-03-16 03:10:00,52.3,35.7,29.80,South,189,0.0,0.0,53,0.00,,---,0.00,VWS V14.01,2013-03-16 07:10:00,
2013-03-16 03:15:00,52.3,35.7,29.80,SSW,203,0.0,0.0,53,0.00,,---,0.00,VWS V14.01,2013-03-16 07:15:00,
2013-03-16 03:20:00,52.5,35.9,29.79,WSW,237,1.0,6.0,53,0.00,,---,0.00,VWS V14.01,2013-03-16 07:20:00,
2013-03-16 03:25:00,52.6,36.0,29.79,SSE,157,0.0,2.0,53,0.00,,---,0.00,VWS V14.01,2013-03-16 07:25:00,
2013-03-16 03:30:00,52.6,36.5,29.79,South,179,0.0,0.0,54,0.00,,---,0.00,VWS V14.01,2013-03-16 07:30:00,
2013-03-16 03:35:00,52.5,36.3,29.78,South,182,0.0,0.0,54,0.00,,---,0.00,VWS V14.01,2013-03-16 07:35:00,
2013-03-16 03:40:00,52.3,36.2,29.78,SSW,205,0.0,0.0,54,0.00,,---,0.00,VWS V14.01,2013-03-16 07:40:00,
2013-03-16 03:45:00,52.3,36.2,29.78,South,186,0.0,0.0,54,0.00,,---,0.00,VWS V14.01,2013-03-16 07:45:00,
2013-03-16 03:50:00,52.2,36.5,29.78,SSW,203,0.0,1.0,55,0.00,,---,0.00,VWS V14.01,2013-03-16 07:50:00,
2013-03-16 03:55:00,52.3,36.2,29.78,SSE,161,0.0,0.0,54,0.00,,---,0.00,VWS V14.01,2013-03-16 07:55:00,
2013-03-16 04:00:00,52.5,36.3,29.78,SW,222,0.0,3.0,54,0.00,,---,0.00,VWS V14.01,2013-03-16 08:00:00,
2013-03-16 04:05:00,52.6,36.5,29.77,SSW,213,0.0,0.0,54,0.00,,---,0.00,VWS V14.01,2013-03-16 08:05:00,
2013-03-16 04:10:00,52.8,36.6,29.77,SE,140,0.0,3.0,54,0.00,,---,0.00,VWS V14.01,2013-03-16 08:10:00,
2013-03-16 04:15:00,53.1,36.9,29.77,South,172,0.0,3.0,54,0.00,,---,0.00,VWS V14.01,2013-03-16 08:15:00,
2013-03-16 04:20:00,53.1,36.9,29.77,West,280,0.0,0.0,54,0.00,,---,0.00,VWS V14.01,2013-03-16 08:20:00,
2013-03-16 04:25:00,53.1,36.4,29.77,South,181,0.0,0.0,53,0.00,,---,0.00,VWS V14.01,2013-03-16 08:25:00,
2013-03-16 04:30:00,53.2,37.0,29.77,South,178,0.0,0.0,54,0.00,,---,0.00,VWS V14.01,2013-03-16 08:30:00,
2013-03-16 04:35:00,53.1,36.4,29.77,SW,215,0.0,0.0,53,0.00,,---,0.00,VWS V14.01,2013-03-16 08:35:00,
2013-03-16 04:40:00,53.1,36.9,29.77,SSE,148,0.0,0.0,54,0.00,,---,0.00,VWS V14.01,2013-03-16 08:40:00,
2013-03-16 04:45:00,52.9,36.7,29.77,SW,216,0.0,0.0,54,0.00,,---,0.00,VWS V14.01,2013-03-16 08:45:00,
2013-03-16 04:50:00,52.9,36.7,29.77,SSW,213,0.0,2.0,54,0.00,,---,0.00,VWS V14.01,2013-03-16 08:50:00,
2013-03-16 04:55:00,52.8,36.6,29.77,ENE,71,0.0,3.0,54,0.00,,---,0.00,VWS V14.01,2013-03-16 08:55:00,
2013-03-16 05:00:00,52.8,37.1,29.77,ESE,119,5.0,5.0,55,0.00,,---,0.00,VWS V14.01,2013-03-16 09:00:00,
2013-03-16 05:05:00,52.6,36.9,29.77,SSE,147,3.0,3.0,55,0.00,,---,0.00,VWS V14.01,2013-03-16 09:05:00,
2013-03-16 05:10:00,52.6,36.9,29.77,SSW,203,0.0,4.0,55,0.00,,---,0.00,VWS V14.01,2013-03-16 09:10:00,
2013-03-16 05:15:00,52.5,36.8,29.77,SSW,202,0.0,0.0,55,0.00,,---,0.00,VWS V14.01,2013-03-16 09:15:00,
2013-03-16 05:20:00,52.5,37.3,29.76,SSW,210,2.0,2.0,56,0.00,,---,0.00,VWS V14.01,2013-03-16 09:20:00,
2013-03-16 05:25:00,52.3,37.1,29.76,South,189,0.0,0.0,56,0.00,,---,0.00,VWS V14.01,2013-03-16 09:25:00,
2013-03-16 05:30:00,52.3,37.1,29.76,South,176,0.0,0.0,56,0.00,,---,0.00,VWS V14.01,2013-03-16 09:30:00,
2013-03-16 05:35:00,52.3,37.1,29.77,South,185,0.0,0.0,56,0.00,,---,0.00,VWS V14.01,2013-03-16 09:35:00,
2013-03-16 05:40:00,52.3,37.5,29.77,SSW,212,0.0,3.0,57,0.00,,---,0.00,VWS V14.01,2013-03-16 09:40:00,
2013-03-16 05:45:00,52.6,37.8,29.77,South,186,0.0,2.0,57,0.00,,---,0.00,VWS V14.01,2013-03-16 09:45:00,
2013-03-16 05:50:00,52.6,37.8,29.77,South,191,0.0,0.0,57,0.00,,---,0.00,VWS V14.01,2013-03-16 09:50:00,
2013-03-16 05:55:00,52.6,37.4,29.77,East,96,0.0,2.0,56,0.00,,---,0.00,VWS V14.01,2013-03-16 09:55:00,
2013-03-16 06:00:00,52.6,37.8,29.77,South,186,0.0,0.0,57,0.00,,---,0.00,VWS V14.01,2013-03-16 10:00:00,
2013-03-16 06:05:00,52.8,38.0,29.77,South,185,0.0,0.0,57,0.00,,---,0.00,VWS V14.01,2013-03-16 10:05:00,
2013-03-16 06:10:00,52.9,38.1,29.77,South,178,0.0,0.0,57,0.00,,---,0.00,VWS V14.01,2013-03-16 10:10:00,
2013-03-16 06:15:00,53.1,38.3,29.77,SSW,195,0.0,2.0,57,0.00,,---,0.00,VWS V14.01,2013-03-16 10:15:00,
2013-03-16 06:20:00,53.2,37.9,29.77,South,178,0.0,0.0,56,0.00,,---,0.00,VWS V14.01,2013-03-16 10:20:00,
2013-03-16 06:25:00,53.3,38.0,29.77,South,172,0.0,0.0,56,0.00,,---,0.00,VWS V14.01,2013-03-16 10:25:00,
2013-03-16 06:30:00,53.5,38.2,29.77,SW,223,0.0,0.0,56,0.00,,---,0.00,VWS V14.01,2013-03-16 10:30:00,
2013-03-16 06:35:00,53.3,38.0,29.77,South,191,0.0,0.0,56,0.00,,---,0.00,VWS V14.01,2013-03-16 10:35:00,
2013-03-16 06:40:00,53.3,38.5,29.77,South,188,0.0,0.0,57,0.00,,---,0.00,VWS V14.01,2013-03-16 10:40:00,
2013-03-16 06:45:00,53.2,38.4,29.77,ESE,120,0.0,0.0,57,0.00,,---,0.00,VWS V14.01,2013-03-16 10:45:00,
2013-03-16 06:50:00,53.2,38.4,29.77,ESE,120,0.0,0.0,57,0.00,,---,0.00,VWS V14.01,2013-03-16 10:50:00,
2013-03-16 06:55:00,53.2,38.8,29.77,ESE,121,0.0,0.0,58,0.00,,---,0.00,VWS V14.01,2013-03-16 10:55:00,
2013-03-16 07:00:00,53.2,38.8,29.77,ESE,113,0.0,2.0,58,0.00,,---,0.00,VWS V14.01,2013-03-16 11:00:00,
2013-03-16 07:05:00,53.2,38.8,29.78,ESE,113,0.0,0.0,58,0.00,,---,0.00,VWS V14.01,2013-03-16 11:05:00,
2013-03-16 07:10:00,53.3,38.9,29.78,SSE,161,0.0,0.0,58,0.00,,---,0.00,VWS V14.01,2013-03-16 11:10:00,
2013-03-16 07:15:00,53.5,39.1,29.78,SSW,208,0.0,0.0,58,0.00,,---,0.00,VWS V14.01,2013-03-16 11:15:00,
2013-03-16 07:20:00,53.5,39.1,29.78,SSW,206,0.0,0.0,58,0.00,,---,0.00,VWS V14.01,2013-03-16 11:20:00,
2013-03-16 07:25:00,53.6,39.2,29.78,South,179,0.0,0.0,58,0.00,,---,0.00,VWS V14.01,2013-03-16 11:25:00,
2013-03-16 07:29:00,53.6,38.8,29.78,South,191,0.0,1.0,57,0.00,,---,0.00,VWS V14.01,2013-03-16 11:29:00,
2013-03-16 07:34:00,53.6,39.2,29.78,South,185,1.0,1.0,58,0.00,,---,0.00,VWS V14.01,2013-03-16 11:34:00,
2013-03-16 07:39:00,53.8,39.4,29.78,South,185,0.0,2.0,58,0.00,,---,0.00,VWS V14.01,2013-03-16 11:39:00,
2013-03-16 07:44:00,53.8,39.4,29.78,SSW,200,0.0,1.0,58,0.00,,---,0.00,VWS V14.01,2013-03-16 11:44:00,
2013-03-16 07:49:00,53.9,39.5,29.78,SSW,192,0.0,0.0,58,0.00,,---,0.00,VWS V14.01,2013-03-16 11:49:00,
2013-03-16 07:54:00,54.1,39.7,29.78,SW,224,0.0,0.0,58,0.00,,---,0.00,VWS V14.01,2013-03-16 11:54:00,
2013-03-16 07:59:00,54.2,39.8,29.78,South,174,0.0,0.0,58,0.00,,---,0.00,VWS V14.01,2013-03-16 11:59:00,
2013-03-16 08:04:00,54.4,40.0,29.77,ESE,107,0.0,1.0,58,0.00,,---,0.00,VWS V14.01,2013-03-16 12:04:00,
2013-03-16 08:09:00,54.5,40.0,29.77,South,178,0.0,3.0,58,0.00,,---,0.00,VWS V14.01,2013-03-16 12:09:00,
2013-03-16 08:14:00,54.7,40.2,29.77,SSW,212,0.0,0.0,58,0.00,,---,0.00,VWS V14.01,2013-03-16 12:14:00,
2013-03-16 08:19:00,55.0,40.5,29.77,South,171,0.0,1.0,58,0.00,,---,0.00,VWS V14.01,2013-03-16 12:19:00,
2013-03-16 08:24:00,55.1,40.6,29.77,SW,222,0.0,0.0,58,0.00,,---,0.00,VWS V14.01,2013-03-16 12:24:00,
2013-03-16 08:29:00,55.1,41.0,29.77,SSE,165,0.0,0.0,59,0.00,,---,0.00,VWS V14.01,2013-03-16 12:29:00,
2013-03-16 08:34:00,55.3,40.8,29.77,SE,133,0.0,0.0,58,0.00,,---,0.00,VWS V14.01,2013-03-16 12:34:00,
2013-03-16 08:39:00,55.3,40.8,29.77,SSW,210,0.0,0.0,58,0.00,,---,0.00,VWS V14.01,2013-03-16 12:39:00,
2013-03-16 08:44:00,55.6,41.1,29.77,SSE,157,2.0,6.0,58,0.00,,---,0.00,VWS V14.01,2013-03-16 12:44:00,
2013-03-16 08:49:00,55.9,40.9,29.77,SSW,206,0.0,0.0,57,0.00,,---,0.00,VWS V14.01,2013-03-16 12:49:00,
2013-03-16 08:54:00,56.0,41.5,29.77,South,179,0.0,0.0,58,0.00,,---,0.00,VWS V14.01,2013-03-16 12:54:00,
2013-03-16 08:59:00,56.0,41.9,29.77,SE,136,0.0,0.0,59,0.00,,---,0.00,VWS V14.01,2013-03-16 12:59:00,
2013-03-16 09:04:00,56.2,42.1,29.78,South,191,0.0,0.0,59,0.00,,---,0.00,VWS V14.01,2013-03-16 13:04:00,
2013-03-16 09:09:00,56.3,42.2,29.78,South,191,0.0,0.0,59,0.00,,---,0.00,VWS V14.01,2013-03-16 13:09:00,
2013-03-16 09:14:00,56.5,42.4,29.78,SSE,168,0.0,0.0,59,0.00,,---,0.00,VWS V14.01,2013-03-16 13:14:00,
2013-03-16 09:19:00,56.7,42.1,29.78,WSW,239,0.0,2.0,58,0.00,,---,0.00,VWS V14.01,2013-03-16 13:19:00,
2013-03-16 09:24:00,57.2,41.7,29.78,ESE,107,0.0,3.0,56,0.00,,---,0.00,VWS V14.01,2013-03-16 13:24:00,
2013-03-16 09:29:00,57.5,41.9,29.78,SW,236,0.0,0.0,56,0.00,,---,0.00,VWS V14.01,2013-03-16 13:29:00,
2013-03-16 09:34:00,57.6,42.0,29.78,ESE,123,0.0,5.0,56,0.00,,---,0.00,VWS V14.01,2013-03-16 13:34:00,
2013-03-16 09:39:00,57.5,43.7,29.78,North,3,0.0,0.0,60,0.00,,---,0.00,VWS V14.01,2013-03-16 13:39:00,
2013-03-16 09:44:00,57.2,43.5,29.78,SSW,208,0.0,5.0,60,0.00,,---,0.00,VWS V14.01,2013-03-16 13:44:00,
2013-03-16 09:49:00,57.2,43.5,29.78,ESE,116,3.0,3.0,60,0.00,,---,0.00,VWS V14.01,2013-03-16 13:49:00,
2013-03-16 09:54:00,57.2,43.0,29.78,SSW,210,0.0,3.0,59,0.00,,---,0.00,VWS V14.01,2013-03-16 13:54:00,
2013-03-16 09:59:00,57.5,42.8,29.78,SSW,213,0.0,2.0,58,0.00,,---,0.00,VWS V14.01,2013-03-16 13:59:00,
2013-03-16 10:04:00,57.5,43.3,29.77,SSE,148,0.0,0.0,59,0.00,,---,0.00,VWS V14.01,2013-03-16 14:04:00,
2013-03-16 10:09:00,57.6,43.4,29.77,SSW,213,0.0,0.0,59,0.00,,---,0.00,VWS V14.01,2013-03-16 14:09:00,
2013-03-16 10:14:00,57.8,43.6,29.77,SE,127,0.0,2.0,59,0.00,,---,0.00,VWS V14.01,2013-03-16 14:14:00,
2013-03-16 10:19:00,58.1,43.0,29.77,SSW,213,0.0,7.0,57,0.00,,---,0.00,VWS V14.01,2013-03-16 14:19:00,
2013-03-16 10:24:00,58.4,42.8,29.77,SW,219,0.0,3.0,56,0.00,,---,0.00,VWS V14.01,2013-03-16 14:24:00,
2013-03-16 10:29:00,58.7,43.5,29.77,SSW,193,0.0,0.0,57,0.00,,---,0.00,VWS V14.01,2013-03-16 14:29:00,
2013-03-16 10:34:00,59.0,42.9,29.76,SSW,196,0.0,1.0,55,0.00,,---,0.00,VWS V14.01,2013-03-16 14:34:00,
2013-03-16 10:39:00,59.3,42.7,29.76,SW,220,0.0,6.0,54,0.00,,---,0.00,VWS V14.01,2013-03-16 14:39:00,
2013-03-16 10:44:00,59.9,43.2,29.76,SSW,208,0.0,2.0,54,0.00,,---,0.00,VWS V14.01,2013-03-16 14:44:00,
2013-03-16 10:49:00,60.5,43.3,29.76,SE,144,0.0,5.0,53,0.00,,---,0.00,VWS V14.01,2013-03-16 14:49:00,
2013-03-16 10:54:00,61.2,43.5,29.76,ESE,121,0.0,0.0,52,0.00,,---,0.00,VWS V14.01,2013-03-16 14:54:00,
2013-03-16 10:59:00,61.3,43.5,29.76,SSW,195,0.0,0.0,52,0.00,,---,0.00,VWS V14.01,2013-03-16 14:59:00,
2013-03-16 11:04:00,61.6,43.8,29.76,SSW,199,0.0,7.0,52,0.00,,---,0.00,VWS V14.01,2013-03-16 15:04:00,
2013-03-16 11:09:00,62.0,43.7,29.76,SSW,206,2.0,5.0,51,0.00,,---,0.00,VWS V14.01,2013-03-16 15:09:00,
2013-03-16 11:14:00,62.4,43.0,29.76,SSE,152,0.0,5.0,49,0.00,,---,0.00,VWS V14.01,2013-03-16 15:14:00,
2013-03-16 11:19:00,63.2,44.3,29.75,ESE,114,0.0,3.0,50,0.00,,---,0.00,VWS V14.01,2013-03-16 15:19:00,
2013-03-16 11:24:00,64.2,43.6,29.75,NNW,335,0.0,4.0,47,0.00,,---,0.00,VWS V14.01,2013-03-16 15:24:00,
2013-03-16 11:29:00,64.7,43.5,29.75,SW,220,0.0,5.0,46,0.00,,---,0.00,VWS V14.01,2013-03-16 15:29:00,
2013-03-16 11:34:00,64.8,43.6,29.74,NNE,21,0.0,0.0,46,0.00,,---,0.00,VWS V14.01,2013-03-16 15:34:00,
2013-03-16 11:39:00,64.8,43.6,29.74,South,188,0.0,0.0,46,0.00,,---,0.00,VWS V14.01,2013-03-16 15:39:00,
2013-03-16 11:44:00,64.7,43.5,29.74,SSW,205,5.0,7.0,46,0.00,,---,0.00,VWS V14.01,2013-03-16 15:44:00,
2013-03-16 11:49:00,64.8,43.6,29.74,South,184,0.0,7.0,46,0.00,,---,0.00,VWS V14.01,2013-03-16 15:49:00,
2013-03-16 11:54:00,64.8,43.6,29.74,SSW,192,0.0,9.0,46,0.00,,---,0.00,VWS V14.01,2013-03-16 15:54:00,
2013-03-16 11:59:00,64.8,43.6,29.74,SW,215,0.0,2.0,46,0.00,,---,0.00,VWS V14.01,2013-03-16 15:59:00,
2013-03-16 12:04:00,64.8,43.6,29.73,SSW,200,0.0,5.0,46,0.00,,---,0.00,VWS V14.01,2013-03-16 16:04:00,
2013-03-16 12:09:00,65.6,44.3,29.73,South,176,0.0,3.0,46,0.00,,---,0.00,VWS V14.01,2013-03-16 16:09:00,
2013-03-16 12:14:00,66.1,43.6,29.73,South,189,0.0,4.0,44,0.00,,---,0.00,VWS V14.01,2013-03-16 16:14:00,
2013-03-16 12:19:00,66.8,44.8,29.72,SSE,147,2.0,2.0,45,0.00,,---,0.00,VWS V14.01,2013-03-16 16:19:00,
2013-03-16 12:24:00,67.1,43.9,29.72,SSE,157,0.0,0.0,43,0.00,,---,0.00,VWS V14.01,2013-03-16 16:24:00,
2013-03-16 12:29:00,67.3,44.1,29.72,South,189,0.0,0.0,43,0.00,,---,0.00,VWS V14.01,2013-03-16 16:29:00,
2013-03-16 12:34:00,68.3,44.3,29.72,SSE,164,0.0,4.0,42,0.00,,---,0.00,VWS V14.01,2013-03-16 16:34:00,
2013-03-16 12:39:00,68.8,44.8,29.72,SSW,212,5.0,11.0,42,0.00,,---,0.00,VWS V14.01,2013-03-16 16:39:00,
2013-03-16 12:44:00,69.1,44.4,29.72,SSE,148,0.0,6.0,41,0.00,,---,0.00,VWS V14.01,2013-03-16 16:44:00,
2013-03-16 12:49:00,69.8,45.1,29.71,NW,305,0.0,1.0,41,0.00,,---,0.00,VWS V14.01,2013-03-16 16:49:00,
2013-03-16 12:54:00,70.3,44.2,29.71,West,275,0.0,0.0,39,0.00,,---,0.00,VWS V14.01,2013-03-16 16:54:00,
2013-03-16 12:59:00,70.1,44.0,29.71,SSW,205,0.0,6.0,39,0.00,,---,0.00,VWS V14.01,2013-03-16 16:59:00,
2013-03-16 13:04:00,70.3,44.9,29.71,SW,227,0.0,7.0,40,0.00,,---,0.00,VWS V14.01,2013-03-16 17:04:00,
2013-03-16 13:09:00,70.6,44.5,29.71,SW,223,0.0,0.0,39,0.00,,---,0.00,VWS V14.01,2013-03-16 17:09:00,
2013-03-16 13:14:00,70.6,43.8,29.71,SSW,195,3.0,11.0,38,0.00,,---,0.00,VWS V14.01,2013-03-16 17:14:00,
2013-03-16 13:19:00,70.8,44.6,29.70,WSW,241,0.0,3.0,39,0.00,,---,0.00,VWS V14.01,2013-03-16 17:19:00,
2013-03-16 13:24:00,71.1,44.2,29.70,ENE,58,0.0,5.0,38,0.00,,---,0.00,VWS V14.01,2013-03-16 17:24:00,
2013-03-16 13:29:00,71.8,46.2,29.70,SSW,203,0.0,0.0,40,0.00,,---,0.00,VWS V14.01,2013-03-16 17:29:00,
2013-03-16 13:34:00,72.7,45.0,29.70,South,169,0.0,5.0,37,0.00,,---,0.00,VWS V14.01,2013-03-16 17:34:00,
2013-03-16 13:39:00,73.2,45.4,29.70,SSE,168,0.0,2.0,37,0.00,,---,0.00,VWS V14.01,2013-03-16 17:39:00,
2013-03-16 13:44:00,73.9,44.5,29.70,SSE,158,0.0,3.0,35,0.00,,---,0.00,VWS V14.01,2013-03-16 17:44:00,
2013-03-16 13:49:00,74.4,43.5,29.69,SW,224,0.0,7.0,33,0.00,,---,0.00,VWS V14.01,2013-03-16 17:49:00,
2013-03-16 13:54:00,74.9,43.9,29.69,NE,54,0.0,5.0,33,0.00,,---,0.00,VWS V14.01,2013-03-16 17:54:00,
2013-03-16 13:59:00,75.3,44.2,29.69,ENE,64,0.0,2.0,33,0.00,,---,0.00,VWS V14.01,2013-03-16 17:59:00,
2013-03-16 14:04:00,75.4,44.3,29.68,WSW,241,5.0,5.0,33,0.00,,---,0.00,VWS V14.01,2013-03-16 18:04:00,
2013-03-16 14:09:00,75.1,44.1,29.68,ESE,103,0.0,7.0,33,0.00,,---,0.00,VWS V14.01,2013-03-16 18:09:00,
2013-03-16 14:14:00,74.6,43.6,29.68,NNW,343,0.0,7.0,33,0.00,,---,0.00,VWS V14.01,2013-03-16 18:14:00,
2013-03-16 14:19:00,74.7,44.5,29.67,NE,54,0.0,0.0,34,0.00,,---,0.00,VWS V14.01,2013-03-16 18:19:00,
2013-03-16 14:24:00,74.9,43.9,29.67,East,90,0.0,9.0,33,0.00,,---,0.00,VWS V14.01,2013-03-16 18:24:00,
2013-03-16 14:29:00,75.4,44.3,29.67,NNE,17,0.0,3.0,33,0.00,,---,0.00,VWS V14.01,2013-03-16 18:29:00,
2013-03-16 14:34:00,75.6,44.5,29.66,South,178,0.0,3.0,33,0.00,,---,0.00,VWS V14.01,2013-03-16 18:34:00,
2013-03-16 14:39:00,75.6,43.7,29.66,SW,227,0.0,6.0,32,0.00,,---,0.00,VWS V14.01,2013-03-16 18:39:00,
2013-03-16 14:44:00,75.8,43.9,29.66,South,174,0.0,7.0,32,0.00,,---,0.00,VWS V14.01,2013-03-16 18:44:00,
2013-03-16 14:49:00,76.3,43.5,29.66,SW,219,0.0,5.0,31,0.00,,---,0.00,VWS V14.01,2013-03-16 18:49:00,
2013-03-16 14:54:00,76.5,43.7,29.66,SSE,167,0.0,10.0,31,0.00,,---,0.00,VWS V14.01,2013-03-16 18:54:00,
2013-03-16 14:59:00,76.1,43.3,29.66,SSW,198,0.0,4.0,31,0.00,,---,0.00,VWS V14.01,2013-03-16 18:59:00,
2013-03-16 15:04:00,76.5,43.7,29.65,ENE,68,0.0,6.0,31,0.00,,---,0.00,VWS V14.01,2013-03-16 19:04:00,
2013-03-16 15:09:00,76.3,43.5,29.65,ENE,71,0.0,1.0,31,0.00,,---,0.00,VWS V14.01,2013-03-16 19:09:00,
2013-03-16 15:14:00,76.5,44.5,29.65,NNE,20,0.0,3.0,32,0.00,,---,0.00,VWS V14.01,2013-03-16 19:14:00,
2013-03-16 15:19:00,76.5,43.7,29.64,North,357,0.0,5.0,31,0.00,,---,0.00,VWS V14.01,2013-03-16 19:19:00,
2013-03-16 15:24:00,76.1,42.5,29.64,ESE,114,0.0,6.0,30,0.00,,---,0.00,VWS V14.01,2013-03-16 19:24:00,
2013-03-16 15:29:00,76.0,44.0,29.64,NE,44,0.0,6.0,32,0.00,,---,0.00,VWS V14.01,2013-03-16 19:29:00,
2013-03-16 15:34:00,76.0,44.0,29.64,South,171,0.0,6.0,32,0.00,,---,0.00,VWS V14.01,2013-03-16 19:34:00,
2013-03-16 15:39:00,75.6,43.7,29.64,NW,311,0.0,6.0,32,0.00,,---,0.00,VWS V14.01,2013-03-16 19:39:00,
2013-03-16 15:44:00,75.8,43.9,29.64,WSW,241,0.0,6.0,32,0.00,,---,0.00,VWS V14.01,2013-03-16 19:44:00,
2013-03-16 15:49:00,76.0,43.2,29.63,NNE,28,0.0,6.0,31,0.00,,---,0.00,VWS V14.01,2013-03-16 19:49:00,
2013-03-16 15:54:00,76.5,43.7,29.63,South,171,0.0,1.0,31,0.00,,---,0.00,VWS V14.01,2013-03-16 19:54:00,
2013-03-16 15:59:00,76.7,43.8,29.63,SE,127,0.0,1.0,31,0.00,,---,0.00,VWS V14.01,2013-03-16 19:59:00,
2013-03-16 16:04:00,77.0,43.2,29.62,WSW,251,0.0,7.0,30,0.00,,---,0.00,VWS V14.01,2013-03-16 20:04:00,
2013-03-16 16:09:00,77.4,43.6,29.62,South,189,0.0,3.0,30,0.00,,---,0.00,VWS V14.01,2013-03-16 20:09:00,
2013-03-16 16:14:00,77.6,43.7,29.62,SSW,202,0.0,7.0,30,0.00,,---,0.00,VWS V14.01,2013-03-16 20:14:00,
2013-03-16 16:19:00,77.9,44.0,29.62,WSW,251,0.0,2.0,30,0.00,,---,0.00,VWS V14.01,2013-03-16 20:19:00,
2013-03-16 16:24:00,78.3,43.5,29.62,SSW,213,5.0,6.0,29,0.00,,---,0.00,VWS V14.01,2013-03-16 20:24:00,
2013-03-16 16:29:00,78.1,42.4,29.62,SSW,199,3.0,8.0,28,0.00,,---,0.00,VWS V14.01,2013-03-16 20:29:00,
2013-03-16 16:34:00,78.3,43.5,29.61,SE,127,0.0,2.0,29,0.00,,---,0.00,VWS V14.01,2013-03-16 20:34:00,
2013-03-16 16:39:00,78.5,43.6,29.61,SSW,208,0.0,0.0,29,0.00,,---,0.00,VWS V14.01,2013-03-16 20:39:00,
2013-03-16 16:44:00,78.3,43.5,29.61,South,185,0.0,8.0,29,0.00,,---,0.00,VWS V14.01,2013-03-16 20:44:00,
2013-03-16 16:49:00,77.9,43.1,29.61,NE,41,0.0,2.0,29,0.00,,---,0.00,VWS V14.01,2013-03-16 20:49:00,
2013-03-16 16:54:00,77.7,42.9,29.61,SSE,161,0.0,3.0,29,0.00,,---,0.00,VWS V14.01,2013-03-16 20:54:00,
2013-03-16 16:59:00,77.4,42.7,29.61,East,96,0.0,2.0,29,0.00,,---,0.00,VWS V14.01,2013-03-16 20:59:00,
2013-03-16 17:04:00,77.2,43.4,29.61,SSW,198,0.0,9.0,30,0.00,,---,0.00,VWS V14.01,2013-03-16 21:04:00,
2013-03-16 17:09:00,76.8,43.0,29.61,North,10,0.0,4.0,30,0.00,,---,0.00,VWS V14.01,2013-03-16 21:09:00,
2013-03-16 17:14:00,76.8,43.0,29.61,SSE,160,0.0,4.0,30,0.00,,---,0.00,VWS V14.01,2013-03-16 21:14:00,
2013-03-16 17:19:00,76.7,43.0,29.60,SSW,209,0.0,5.0,30,0.00,,---,0.00,VWS V14.01,2013-03-16 21:19:00,
2013-03-16 17:24:00,76.5,42.8,29.60,North,357,0.0,1.0,30,0.00,,---,0.00,VWS V14.01,2013-03-16 21:24:00,
2013-03-16 17:29:00,76.1,43.3,29.60,SSW,212,0.0,7.0,31,0.00,,---,0.00,VWS V14.01,2013-03-16 21:29:00,
2013-03-16 17:34:00,76.0,43.2,29.60,ESE,123,0.0,0.0,31,0.00,,---,0.00,VWS V14.01,2013-03-16 21:34:00,
2013-03-16 17:39:00,76.0,43.2,29.60,North,356,0.0,1.0,31,0.00,,---,0.00,VWS V14.01,2013-03-16 21:39:00,
2013-03-16 17:44:00,75.8,43.0,29.60,SSW,213,0.0,10.0,31,0.00,,---,0.00,VWS V14.01,2013-03-16 21:44:00,
2013-03-16 17:49:00,75.6,42.0,29.59,NE,56,1.0,5.0,30,0.00,,---,0.00,VWS V14.01,2013-03-16 21:49:00,
2013-03-16 17:54:00,75.4,42.7,29.59,SSW,212,0.0,5.0,31,0.00,,---,0.00,VWS V14.01,2013-03-16 21:54:00,
2013-03-16 17:59:00,75.3,42.6,29.59,NW,315,0.0,7.0,31,0.00,,---,0.00,VWS V14.01,2013-03-16 21:59:00,
2013-03-16 18:04:00,75.1,42.4,29.59,WSW,251,0.0,11.0,31,0.00,,---,0.00,VWS V14.01,2013-03-16 22:04:00,
2013-03-16 18:09:00,74.7,43.7,29.59,ESE,110,0.0,1.0,33,0.00,,---,0.00,VWS V14.01,2013-03-16 22:09:00,
2013-03-16 18:14:00,74.6,42.8,29.59,SW,226,0.0,2.0,32,0.00,,---,0.00,VWS V14.01,2013-03-16 22:14:00,
2013-03-16 18:19:00,74.4,43.5,29.59,SSW,205,0.0,0.0,33,0.00,,---,0.00,VWS V14.01,2013-03-16 22:19:00,
2013-03-16 18:24:00,74.2,44.1,29.59,SSW,200,0.0,0.0,34,0.00,,---,0.00,VWS V14.01,2013-03-16 22:24:00,
2013-03-16 18:29:00,74.0,43.1,29.59,SW,222,0.0,0.0,33,0.00,,---,0.00,VWS V14.01,2013-03-16 22:29:00,
2013-03-16 18:34:00,73.9,43.8,29.59,ESE,109,0.0,0.0,34,0.00,,---,0.00,VWS V14.01,2013-03-16 22:34:00,
2013-03-16 18:39:00,73.9,43.8,29.59,SSW,195,0.0,1.0,34,0.00,,---,0.00,VWS V14.01,2013-03-16 22:39:00,
2013-03-16 18:44:00,73.9,43.0,29.59,SW,222,0.0,2.0,33,0.00,,---,0.00,VWS V14.01,2013-03-16 22:44:00,
2013-03-16 18:49:00,73.9,43.0,29.60,South,184,0.0,0.0,33,0.00,,---,0.00,VWS V14.01,2013-03-16 22:49:00,
2013-03-16 18:54:00,73.5,42.7,29.60,South,189,0.0,0.0,33,0.00,,---,0.00,VWS V14.01,2013-03-16 22:54:00,
2013-03-16 18:59:00,73.2,43.2,29.60,SW,216,0.0,0.0,34,0.00,,---,0.00,VWS V14.01,2013-03-16 22:59:00,
2013-03-16 19:04:00,73.0,43.0,29.61,SW,229,0.0,1.0,34,0.00,,---,0.00,VWS V14.01,2013-03-16 23:04:00,
2013-03-16 19:09:00,72.8,42.8,29.61,SSE,160,0.0,0.0,34,0.00,,---,0.00,VWS V14.01,2013-03-16 23:09:00,
2013-03-16 19:14:00,72.8,42.8,29.61,SE,140,0.0,1.0,34,0.00,,---,0.00,VWS V14.01,2013-03-16 23:14:00,
2013-03-16 19:19:00,72.7,42.7,29.61,ESE,120,0.0,0.0,34,0.00,,---,0.00,VWS V14.01,2013-03-16 23:19:00,
2013-03-16 19:24:00,72.5,42.6,29.61,SE,141,0.0,0.0,34,0.00,,---,0.00,VWS V14.01,2013-03-16 23:24:00,
2013-03-16 19:29:00,72.3,42.4,29.61,SSE,155,0.0,3.0,34,0.00,,---,0.00,VWS V14.01,2013-03-16 23:29:00,
2013-03-16 19:34:00,72.3,42.4,29.61,ESE,120,0.0,0.0,34,0.00,,---,0.00,VWS V14.01,2013-03-16 23:34:00,
2013-03-16 19:39:00,72.3,42.4,29.61,SE,124,0.0,0.0,34,0.00,,---,0.00,VWS V14.01,2013-03-16 23:39:00,
2013-03-16 19:44:00,72.0,42.9,29.61,ESE,121,0.0,0.0,35,0.00,,---,0.00,VWS V14.01,2013-03-16 23:44:00,
2013-03-16 19:49:00,71.8,42.7,29.63,South,175,0.0,0.0,35,0.00,,---,0.00,VWS V14.01,2013-03-16 23:49:00,
2013-03-16 19:54:00,71.5,43.2,29.63,South,189,0.0,3.0,36,0.00,,---,0.00,VWS V14.01,2013-03-16 23:54:00,
2013-03-16 19:59:00,71.1,43.5,29.63,South,188,0.0,0.0,37,0.00,,---,0.00,VWS V14.01,2013-03-16 23:59:00,
2013-03-16 20:04:00,70.9,43.4,29.64,SE,126,0.0,0.0,37,0.00,,---,0.00,VWS V14.01,2013-03-17 00:04:00,
2013-03-16 20:09:00,70.8,43.3,29.64,SE,127,0.0,0.0,37,0.00,,---,0.00,VWS V14.01,2013-03-17 00:09:00,
2013-03-16 20:14:00,70.4,43.6,29.64,SE,127,0.0,0.0,38,0.00,,---,0.00,VWS V14.01,2013-03-17 00:14:00,
2013-03-16 20:19:00,70.3,43.5,29.66,SE,124,0.0,0.0,38,0.00,,---,0.00,VWS V14.01,2013-03-17 00:19:00,
2013-03-16 20:24:00,70.3,43.5,29.66,ESE,123,0.0,0.0,38,0.00,,---,0.00,VWS V14.01,2013-03-17 00:24:00,
2013-03-16 20:29:00,70.1,44.0,29.66,East,100,0.0,0.0,39,0.00,,---,0.00,VWS V14.01,2013-03-17 00:29:00,
2013-03-16 20:34:00,69.9,43.8,29.68,NNE,28,0.0,0.0,39,0.00,,---,0.00,VWS V14.01,2013-03-17 00:34:00,
2013-03-16 20:39:00,69.9,44.5,29.68,NNE,28,0.0,0.0,40,0.00,,---,0.00,VWS V14.01,2013-03-17 00:39:00,
2013-03-16 20:44:00,69.9,44.5,29.68,NNE,28,0.0,0.0,40,0.00,,---,0.00,VWS V14.01,2013-03-17 00:44:00,
2013-03-16 20:49:00,69.8,45.1,29.70,NNE,28,0.0,0.0,41,0.00,,---,0.00,VWS V14.01,2013-03-17 00:49:00,
2013-03-16 20:54:00,69.6,44.9,29.70,NNE,28,0.0,0.0,41,0.00,,---,0.00,VWS V14.01,2013-03-17 00:54:00,
2013-03-16 20:59:00,69.4,45.3,29.70,NNE,28,0.0,0.0,42,0.00,,---,0.00,VWS V14.01,2013-03-17 00:59:00,
2013-03-16 21:04:00,69.3,44.6,29.72,NNE,28,0.0,0.0,41,0.00,,---,0.00,VWS V14.01,2013-03-17 01:04:00,
2013-03-16 21:09:00,69.3,45.2,29.72,NNE,28,0.0,0.0,42,0.00,,---,0.00,VWS V14.01,2013-03-17 01:09:00,
2013-03-16 21:14:00,68.9,45.5,29.72,NNE,28,0.0,0.0,43,0.00,,---,0.00,VWS V14.01,2013-03-17 01:14:00,
2013-03-16 21:19:00,68.6,45.8,29.73,North,1,0.0,0.0,44,0.00,,---,0.00,VWS V14.01,2013-03-17 01:19:00,
2013-03-16 21:24:00,68.4,46.2,29.73,North,1,0.0,0.0,45,0.00,,---,0.00,VWS V14.01,2013-03-17 01:24:00,
2013-03-16 21:29:00,68.4,46.2,29.73,North,1,0.0,0.0,45,0.00,,---,0.00,VWS V14.01,2013-03-17 01:29:00,
2013-03-16 21:34:00,68.4,46.2,29.73,North,1,0.0,0.0,45,0.00,,---,0.00,VWS V14.01,2013-03-17 01:34:00,
2013-03-16 21:39:00,68.3,46.2,29.73,North,1,0.0,0.0,45,0.00,,---,0.00,VWS V14.01,2013-03-17 01:39:00,
2013-03-16 21:44:00,68.1,46.6,29.73,North,1,0.0,0.0,46,0.00,,---,0.00,VWS V14.01,2013-03-17 01:44:00,
2013-03-16 21:49:00,67.9,47.0,29.74,North,1,0.0,0.0,47,0.00,,---,0.00,VWS V14.01,2013-03-17 01:49:00,
2013-03-16 21:54:00,67.8,47.4,29.74,North,1,0.0,0.0,48,0.00,,---,0.00,VWS V14.01,2013-03-17 01:54:00,
2013-03-16 21:59:00,67.6,47.2,29.74,North,1,0.0,0.0,48,0.00,,---,0.00,VWS V14.01,2013-03-17 01:59:00,
2013-03-16 22:04:00,67.3,47.5,29.75,North,1,0.0,0.0,49,0.00,,---,0.00,VWS V14.01,2013-03-17 02:04:00,
2013-03-16 22:09:00,67.1,47.9,29.75,North,1,0.0,0.0,50,0.00,,---,0.00,VWS V14.01,2013-03-17 02:09:00,
2013-03-16 22:14:00,66.9,48.2,29.75,North,1,0.0,0.0,51,0.00,,---,0.00,VWS V14.01,2013-03-17 02:14:00,
2013-03-16 22:19:00,66.8,48.1,29.75,North,1,0.0,0.0,51,0.00,,---,0.00,VWS V14.01,2013-03-17 02:19:00,
2013-03-16 22:24:00,66.6,48.4,29.75,North,1,0.0,0.0,52,0.00,,---,0.00,VWS V14.01,2013-03-17 02:24:00,
2013-03-16 22:29:00,66.3,48.7,29.75,North,1,0.0,0.0,53,0.00,,---,0.00,VWS V14.01,2013-03-17 02:29:00,
2013-03-16 22:34:00,66.0,48.4,29.75,North,1,0.0,0.0,53,0.00,,---,0.00,VWS V14.01,2013-03-17 02:34:00,
2013-03-16 22:39:00,65.6,48.0,29.75,North,1,0.0,0.0,53,0.00,,---,0.00,VWS V14.01,2013-03-17 02:39:00,
2013-03-16 22:44:00,65.3,48.2,29.75,North,1,0.0,0.0,54,0.00,,---,0.00,VWS V14.01,2013-03-17 02:44:00,
2013-03-16 22:49:00,65.2,49.1,29.76,North,1,0.0,0.0,56,0.00,,---,0.00,VWS V14.01,2013-03-17 02:49:00,
2013-03-16 22:54:00,64.8,49.2,29.76,North,1,0.0,0.0,57,0.00,,---,0.00,VWS V14.01,2013-03-17 02:54:00,
2013-03-16 22:59:00,64.5,49.0,29.76,North,1,0.0,0.0,57,0.00,,---,0.00,VWS V14.01,2013-03-17 02:59:00,
2013-03-16 23:04:00,64.2,49.1,29.76,North,1,0.0,0.0,58,0.00,,---,0.00,VWS V14.01,2013-03-17 03:04:00,
2013-03-16 23:09:00,63.9,49.3,29.76,North,1,0.0,0.0,59,0.00,,---,0.00,VWS V14.01,2013-03-17 03:09:00,
2013-03-16 23:14:00,63.7,49.6,29.76,North,1,0.0,0.0,60,0.00,,---,0.00,VWS V14.01,2013-03-17 03:14:00,
2013-03-16 23:19:00,63.4,49.3,29.76,North,1,0.0,0.0,60,0.00,,---,0.00,VWS V14.01,2013-03-17 03:19:00,
2013-03-16 23:24:00,63.1,49.5,29.76,North,1,0.0,0.0,61,0.00,,---,0.00,VWS V14.01,2013-03-17 03:24:00,
2013-03-16 23:29:00,62.7,49.5,29.76,North,1,0.0,0.0,62,0.00,,---,0.00,VWS V14.01,2013-03-17 03:29:00,
2013-03-16 23:34:00,62.4,49.2,29.76,NNE,32,0.0,0.0,62,0.00,,---,0.00,VWS V14.01,2013-03-17 03:34:00,
2013-03-16 23:39:00,62.1,49.4,29.76,NNE,32,0.0,0.0,63,0.00,,---,0.00,VWS V14.01,2013-03-17 03:39:00,
2013-03-16 23:44:00,62.0,49.7,29.76,NNE,32,0.0,0.0,64,0.00,,---,0.00,VWS V14.01,2013-03-17 03:44:00,
2013-03-16 23:49:00,62.0,49.7,29.76,NNE,32,0.0,0.0,64,0.00,,---,0.00,VWS V14.01,2013-03-17 03:49:00,
2013-03-16 23:54:00,61.8,49.5,29.76,NNE,32,0.0,0.0,64,0.00,,---,0.00,VWS V14.01,2013-03-17 03:54:00,
2013-03-16 23:59:00,61.6,49.3,29.76,NNE,32,0.0,0.0,64,0.00,,---,0.00,VWS V14.01,2013-03-17 03:59:00,